WBKKWBSB

Guest
Details From WBKK - Kota Kinabalu Intl
To WBSB - Brunei Intl
Flight Number -
Tags generated
Created
Modified
Stats Distance 90 nm / 167 km
Max Altitude 900 ft / 274 m
Waypoints 3
Social Downloads 6
Likes 0
Share VATSIM

Download

Looking for another format? Having issues loading an existing format? Contact us
Advertisement - Login to hide

Notes

Basic altitude profile: - Ascent Rate: 2500ft/min - Ascent Speed: 250kts - Cruise Altitude: 35000ft - Cruise Speed: 420kts - Descent Rate: 1500ft/min - Descent Speed: 250kts

Route

WBKK VJN WBSB

ID Type Via Altitude Latitude Longitude Leg Dist Tot Dist Heading (true) Name
O WBKK APT - 0 ft / 0 m 5.93721˚ 116.05118˚ - 0 nm - Kota Kinabalu Intl
VJN VOR - 900 ft / 274 m 5.89967˚ 116.02994˚ 2 nm 2 nm 209° / 209° KOTA KINABALU VOR-DME
O WBSB APT - 0 ft / 0 m 4.94417˚ 114.92833˚ 87 nm 89 nm 229° / 229° Brunei Intl

Altitude Profile

Advertisement - Login to hide

WBKK

Details ICAO WBKK (BKI)
Name Kota Kinabalu Intl
Region Brunei and Malaysia
Timezone Asia/Kuching (UTC+8.0)
Stats Elevation 10 ft / 3 m (AMSL)
Location 5.937208° 116.051181°
Runways 1
Magnetic Variation 0.409° W

METAR

WBKK 161900Z 15006KT 120V190 5000 RA FEW012 FEW016CB SCT035 BKN250 24/23 Q1009 TEMPO 4000 RA

Decode

TAF

TAF WBKK 161700Z 1618/1718 12005KT 9999 FEW013 FEW016CB TEMPO 1618/1622 4000 TSRA FEW012 FEW016CB

Decode

Departure Runways

ID Width Length Bearing (true) Bearing (mag) Surface Threshold Offset Overrun Length
02 150 ft / 46 m 9,836 ft / 2,998 m 22.73° 23.14° Asphalt 1,600 ft / 488 m 0 ft / 0 m
20 150 ft / 46 m 9,836 ft / 2,998 m 202.73° 203.14° Asphalt 200 ft / 61 m 0 ft / 0 m

WBSB

Details ICAO WBSB (BWN)
Name Brunei Intl
Region Brunei and Malaysia
Timezone Asia/Brunei (UTC+8.0)
Stats Elevation 73 ft / 22 m (AMSL)
Location 4.944172° 114.928327°
Runways 1
Magnetic Variation 0.212° W

METAR

WBSB 161900Z 21003KT 8000 -RA FEW003 BKN150 25/25 Q1009 TEMPO 28012KT 6000 SHRA TSRA

Decode

TAF

TAF WBSB 161700Z 1618/1800 20003KT 9999 SCT015 FEW016CB TEMPO 1618/1623 7000 SHRA TSRA BECMG 1702/1704 26010KT SCT016 FEW017CB

Decode

Destination Runways

ID Width Length Bearing (true) Bearing (mag) Surface Threshold Offset Overrun Length
03 151 ft / 46 m 12,044 ft / 3,671 m 30.90° 31.11° Asphalt 0 ft / 0 m 69 ft / 21 m
21 151 ft / 46 m 12,044 ft / 3,671 m 210.90° 211.11° Asphalt 0 ft / 0 m 69 ft / 21 m

Approach Navaids

Runway Type Ident Frequency Range Bearing (true) Bearing (mag) Slope Elevation
03 Localiser BE 108.90 MHz 18 nm / 33 km 30.92° 31.13° - 73 ft / 22 m (AMSL)
03 Glidescope BE 108.90 MHz 10 nm / 19 km 30.90° 31.11° 3.00° 73 ft / 22 m (AMSL)
03 DME BE 108.90 MHz 18 nm / 33 km - - - 20 ft / 6 m (AMSL)
21 Localiser BI 109.70 MHz 18 nm / 33 km 210.90° 211.11° - 20 ft / 6 m (AMSL)
21 Glidescope BI 109.70 MHz 10 nm / 19 km 210.90° 211.11° 3.00° 73 ft / 22 m (AMSL)
21 DME BI 109.70 MHz 18 nm / 33 km - - - 73 ft / 22 m (AMSL)

Popular Alternatives